sat.trackr.live / text

‹ back to catalog

STARLINK-2161

NORAD 47747 · 2021-017AB

PAYLOAD ACTIVE UNKNOWN

§ Identity

Operator
Country
US
Launch date
2021-03-04
Launch site
AFETR
Launch vehicle
Mass (kg)
RCS (m²)

Purposes: comms

External: N2YO · Heavens-Above · Gunter

§ Orbital elements

Epoch: 2026-05-25T02:55:19.123104Z

Period
94.01 min
Inclination
53.1586°
Eccentricity
0.0001130
Mean motion
15.31698203 rev/d
Perigee alt
470.0 km
Apogee alt
471.5 km
Semi-major
6,848.9 km
B*
8.4534e-6
RAAN
198.4071°
Arg perigee
85.9514°
Mean anomaly
274.1617°
Rev number
28,972

§ Raw data

STARLINK-21611 47747U 21017AB  26145.12174911 -.00000103  00000+0  84534-5 0  99972 47747  53.1586 198.4071 0001130  85.9514 274.1617 15.31698203289720

JSON: /api/v1/satellites/47747 · /tle

For live sub-satellite position, see the globe view (requires WebGL).

§ Visibility from observer

Set your observer location to see the next 7 days of passes ≥ 10°. The values pass through the URL so the page stays shareable.

No JS? Fill the form by hand. The geolocation button needs JavaScript.